Location: Lourdes
(43.1000°N, 0.0500°W)
Time: 09:09:23
(UTC+00:00)

CZ-4 DEB - Visible Passes

Search period start: 16 June 2021 00:00
Search period end: 26 June 2021 00:00
Orbit: 697 x 748 km, 98.4° (Epoch: 15 June)

Date Brightness Start Highest point End Pass type
(mag) Time Alt. Az. Time Alt. Az. Time Alt. Az.
17 Jun ? 03:16:15 10° NE 03:20:06 22° E 03:23:55 10° SE visible
19 Jun ? 03:16:11 10° NE 03:20:01 22° E 03:23:50 10° SE visible
21 Jun ? 03:16:07 10° NE 03:19:57 22° E 03:23:45 10° SE visible
23 Jun ? 03:16:03 10° NE 03:19:53 22° E 03:23:40 10° SE visible
25 Jun ? 03:15:59 10° NE 03:19:48 21° E 03:23:34 10° SE visible
